Flag for Poland Weather past 2 weeks in Opole, Poland

Now
55 °F

Sunny.


Feels Like: 55 °F
Forecast: 55 / 78 °F
Wind: 2 mph from North

Location: Wroclaw Ii

Current Time: Jun 30, 2015 at 6:26:33 AM

Latest Report: Jun 30, 2015 at 6:00 AM


Visibility: 10 mi

Pressure: 30.15 "Hg

Humidity: 94%

Dew point: 54 °F

Location of OpoleLocation

Historic Weather in Opole — Graph

°F

Opole temperature yesterday

Maximum temperature yesterday: 73 °F (at 6:00 PM)
Minimum temperature yesterday: 52 °F (at 3:30 AM)
Average temperature yesterday: 64 °F

Past Weeks' High & Low Weather Summary

 TemperatureHumidityPressure
High79 °F (Jun 26, 2:30 PM)100% (Jun 22, 5:30 AM)30.27 "Hg (Jun 22, 5:30 AM)
Low45 °F (Jun 16, 5:00 AM)34% (Jun 26, 3:00 PM)29.68 "Hg (Jun 23, 7:30 AM)
Average60 °F73%30.04 "Hg
* Reported Jun 15 5:00 AM — Jun 30 5:00 AM, Opole, Weather by CustomWeather, © 2015

Note: Actual official high and low records may vary slightly from our data, if they occured in-between our weather recording intervals... More about our weather records

Advertising

Opole weather history for previous 24 hours

 ConditionsComfort  
Time TempWeatherWind HumidityBarometerVisibility
5:00 AM
Tue, Jun 30
54 °FFog.2 mph94%30.15 "HgN/A
4:30 AM54 °FFog.2 mph94%30.15 "HgN/A
4:00 AM54 °FFog.1 mph94%30.15 "HgN/A
3:30 AM54 °FFog.3 mph94%30.15 "HgN/A
3:00 AM55 °FFog.2 mph94%30.15 "HgN/A
2:30 AM55 °FFog.1 mph94%30.18 "HgN/A
2:00 AM55 °FFog.1 mph94%30.18 "HgN/A
1:30 AM55 °FClear.2 mph94%30.18 "Hg10 mi
1:00 AM57 °FClear.2 mph94%30.18 "Hg10 mi
12:30 AM57 °FClear.2 mph88%30.18 "Hg10 mi
11:00 PM
Mon, Jun 29
59 °FClear.2 mph88%30.18 "Hg10 mi
10:30 PM59 °FClear.No wind88%30.18 "Hg10 mi
10:00 PM61 °FSunny.1 mph83%30.18 "Hg10 mi
9:30 PM63 °FSunny.1 mph83%30.18 "Hg10 mi
9:00 PM64 °FSunny.1 mph78%30.18 "Hg10 mi
8:30 PM68 °FSunny.2 mph69%30.18 "Hg10 mi
8:00 PM70 °FSunny.2 mph60%30.18 "Hg10 mi
7:30 PM72 °FSunny.3 mph57%30.18 "Hg10 mi
7:00 PM72 °FPassing clouds.5 mph53%30.15 "HgN/A
6:30 PM73 °FSunny.5 mph50%30.15 "Hg10 mi
6:00 PM73 °FSunny.3 mph50%30.15 "Hg10 mi
5:30 PM72 °FPassing clouds.6 mph57%30.15 "HgN/A
5:00 PM72 °FPassing clouds.5 mph57%30.18 "HgN/A
4:30 PM72 °FPassing clouds.5 mph57%30.18 "HgN/A
4:00 PM72 °FPassing clouds.5 mph53%30.18 "HgN/A
3:30 PM72 °FScattered clouds.5 mph53%30.18 "HgN/A
3:00 PM72 °FScattered clouds.5 mph57%30.18 "HgN/A
2:30 PM72 °FScattered clouds.5 mph57%30.18 "HgN/A
2:00 PM70 °FPassing clouds.5 mph60%30.18 "HgN/A
1:30 PM68 °FPassing clouds.5 mph60%30.18 "HgN/A
1:00 PM68 °FPassing clouds.7 mph60%30.18 "HgN/A
12:30 PM68 °FSunny.5 mph64%30.18 "Hg10 mi
12:00 PM68 °FSunny.6 mph64%30.18 "Hg10 mi
11:30 AM68 °FSunny.5 mph64%30.18 "Hg10 mi
11:00 AM66 °FSunny.8 mph68%30.18 "Hg10 mi
10:30 AM66 °FSunny.7 mph68%30.18 "Hg10 mi
10:00 AM64 °FPassing clouds.5 mph78%30.18 "HgN/A
9:30 AM63 °FPassing clouds.5 mph83%30.18 "HgN/A
9:00 AM63 °FSunny.2 mph88%30.18 "Hg10 mi
8:30 AM63 °FSunny.2 mph83%30.18 "Hg10 mi
8:00 AM61 °FSunny.5 mph88%30.18 "Hg10 mi
7:30 AM59 °FSunny.No wind94%30.18 "Hg10 mi
7:00 AM57 °FSunny.No wind94%30.18 "Hg10 mi
6:30 AM57 °FSunny.1 mph88%30.18 "Hg10 mi
6:00 AM55 °FSunny.1 mph100%30.18 "Hg10 mi
Weather by CustomWeather, © 2015

See weather overviewHow to use our weather pages